Phuket, Thailand

9:59 AM +07 on December 13, 2017 (GMT +0700)
Phuket International

Weather History for VTSP - July, 2013

Change the Weather History Date:

Wednesday, July 31, 2013

  Actual Average Record
Temperature  
Mean Temperature 82 °F -  
Max Temperature 88 °F 87 °F 93 °F (1996)
Min Temperature 75 °F 78 °F 71 °F (2007)
Cooling Degree Days 16    
Growing Degree Days 32 (Base 50)    
Moisture  
Dew Point 74 °F    
Average Humidity 81    
Maximum Humidity 94    
Minimum Humidity 66    
Precipitation  
Precipitation 1.97 in 0.36 in - ()
Sea Level Pressure  
Sea Level Pressure 29.77 in    
Wind  
Wind Speed 9 mph ()    
Max Wind Speed 29 mph    
Max Gust Speed 40 mph    
Visibility 4.3 miles    
Events Rain , Thunderstorm    
Averages and records for this station are not official NWS values.
T = Trace of Precipitation, MM = Missing Value Source: Averaged Metar Reports

Daily Weather History Graph

Daily Weather History Graph

Search for Another Location

Airport or City:

Trip Planner

Search our weather history database for the weather conditions in past years. The results will help you decide how hot, cold, wet, or windy it might be!

Date:

Astronomy

Jul. 31, 2013 Rise Set
Actual Time 6:18 AM +07 6:47 PM +07
Civil Twilight 5:56 AM +07 7:09 PM +07
Nautical Twilight 5:30 AM +07 7:35 PM +07
Astronomical Twilight 5:04 AM +07 8:01 PM +07
Moon 12:49 AM +07 (7/31) 1:34 PM +07 (7/31)
Length of Visible Light 13h 12m
Length of Day
12h 28m
Last Quarter, 36% of the Moon is Illuminated
Jul 31
Last Quarter
Aug 7
New
Aug 14
First Quarter
Aug 21
Full
Aug 28
Last Quarter

Hourly Weather History & Observations

Time (+07) Temp. Heat Index Dew Point Humidity Pressure Visibility Wind Dir Wind Speed Gust Speed Precip Events Conditions
12:00 AM 82.4 °F 89.5 °F 75.2 °F 79% 29.80 in 5.0 mi WSW 8.1 mph - N/A   Mostly Cloudy
12:30 AM 82.4 °F 89.5 °F 75.2 °F 79% 29.80 in 5.0 mi WSW 5.8 mph - N/A   Mostly Cloudy
1:00 AM 82.4 °F 89.5 °F 75.2 °F 79% 29.77 in 5.0 mi WSW 8.1 mph - N/A   Mostly Cloudy
1:30 AM 82.4 °F 89.5 °F 75.2 °F 79% 29.77 in 5.0 mi WSW 6.9 mph - N/A   Mostly Cloudy
2:00 AM 82.4 °F 89.5 °F 75.2 °F 79% 29.77 in 5.0 mi WSW 9.2 mph - N/A   Mostly Cloudy
2:30 AM 82.4 °F 89.5 °F 75.2 °F 79% 29.77 in 5.0 mi West 12.7 mph - N/A   Mostly Cloudy
3:00 AM 82.4 °F 89.5 °F 75.2 °F 79% 29.74 in 5.0 mi WSW 9.2 mph - N/A   Mostly Cloudy
3:30 AM 82.4 °F 89.5 °F 75.2 °F 79% 29.74 in 5.0 mi WSW 9.2 mph 23.0 mph N/A   Mostly Cloudy
4:00 AM 82.4 °F 89.5 °F 75.2 °F 79% 29.74 in 5.0 mi WSW 9.2 mph - N/A   Mostly Cloudy
5:00 AM 82.4 °F 89.5 °F 75.2 °F 79% 29.74 in 5.0 mi Variable 5.8 mph - N/A   Mostly Cloudy
5:30 AM 82.4 °F 89.5 °F 75.2 °F 79% 29.77 in 3.1 mi SW 5.8 mph - N/A   Mostly Cloudy
6:00 AM 82.4 °F 89.5 °F 75.2 °F 79% 29.77 in 5.0 mi WSW 5.8 mph - N/A   Mostly Cloudy
6:30 AM 82.4 °F 89.5 °F 75.2 °F 79% 29.77 in 5.0 mi Variable 6.9 mph 18.4 mph N/A   Mostly Cloudy
7:00 AM 83 °F - 76 °F 74% 29.74 in 5 mi West 12.7 mph - -   Mist
7:00 AM 82.4 °F 89.5 °F 75.2 °F 79% 29.77 in 5.0 mi West 11.5 mph - N/A   Mostly Cloudy
7:30 AM 82.4 °F 89.5 °F 75.2 °F 79% 29.77 in 5.0 mi Variable 4.6 mph - N/A   Mostly Cloudy
8:00 AM 82.4 °F 89.5 °F 75.2 °F 79% 29.77 in 5.0 mi WSW 8.1 mph - N/A   Mostly Cloudy
8:30 AM 82.4 °F 89.5 °F 75.2 °F 79% 29.80 in 5.0 mi WSW 4.6 mph - N/A   Mostly Cloudy
9:00 AM 84.2 °F 92.3 °F 75.2 °F 74% 29.80 in 5.0 mi WSW 9.2 mph 20.7 mph N/A   Mostly Cloudy
9:30 AM 82.4 °F 89.5 °F 75.2 °F 79% 29.80 in 5.0 mi WSW 10.4 mph - N/A   Mostly Cloudy
10:00 AM 84.2 °F 92.3 °F 75.2 °F 74% 29.80 in 5.0 mi WSW 10.4 mph - N/A   Mostly Cloudy
10:30 AM 86.0 °F 95.1 °F 75.2 °F 70% 29.80 in 5.0 mi WSW 12.7 mph - N/A   Mostly Cloudy
11:00 AM 87.8 °F 99.7 °F 77.0 °F 70% 29.80 in 5.0 mi West 15.0 mph - N/A   Mostly Cloudy
11:30 AM 87.8 °F 97.6 °F 75.2 °F 66% 29.77 in 5.0 mi West 18.4 mph - N/A   Mostly Cloudy
12:00 PM 86.0 °F 96.9 °F 77.0 °F 74% 29.77 in 5.0 mi West 11.5 mph - N/A   Mostly Cloudy
12:30 PM 87.8 °F 97.6 °F 75.2 °F 66% 29.77 in 5.0 mi West 20.7 mph - N/A   Mostly Cloudy
1:00 PM 88 °F - 79 °F 68% 29.74 in 5 mi West 9.2 mph - -   Mist
1:00 PM 87.8 °F 97.6 °F 75.2 °F 66% 29.77 in 5.0 mi WSW 12.7 mph - N/A   Mostly Cloudy
1:30 PM 78.8 °F - 71.6 °F 78% 29.77 in 1.9 mi West 28.8 mph 40.3 mph N/A Rain Rain
2:00 PM 77.0 °F - 73.4 °F 89% 29.77 in 1.9 mi West 18.4 mph 29.9 mph N/A Rain Rain
2:30 PM 77.0 °F - 71.6 °F 83% 29.74 in 4.3 mi WSW 8.1 mph - N/A Rain Light Rain
3:00 PM 77.0 °F - 71.6 °F 83% 29.74 in 4.3 mi SW 5.8 mph - N/A Rain Light Rain
3:30 PM 80.6 °F 86.2 °F 75.2 °F 84% 29.71 in 4.3 mi WSW 5.8 mph - N/A Rain Light Rain
4:00 PM 80.6 °F 86.2 °F 75.2 °F 84% 29.71 in 4.3 mi WSW 3.5 mph - N/A   Mostly Cloudy
4:30 PM 80.6 °F 86.2 °F 75.2 °F 84% 29.71 in 1.2 mi WSW 13.8 mph - N/A Rain Heavy Rain
5:00 PM 75.2 °F - 73.4 °F 94% 29.74 in 3.1 mi WNW 12.7 mph - N/A Rain Light Rain
5:30 PM 77.0 °F - 73.4 °F 89% 29.71 in 3.1 mi WNW 9.2 mph - N/A Rain Light Rain
6:30 PM 75.2 °F - 73.4 °F 94% 29.74 in 3.1 mi West 10.4 mph - N/A Rain Rain
7:00 PM 76 °F - 73 °F 88% 29.69 in 3 mi WNW 17.3 mph - - Rain , Thunderstorm Thunderstorms and Rain
7:30 PM 75.2 °F - 71.6 °F 89% 29.80 in 1.9 mi NW 16.1 mph 27.6 mph N/A Rain Rain
8:00 PM 75.2 °F - 71.6 °F 89% 29.80 in 1.9 mi NW 5.8 mph - N/A Rain Rain
8:30 PM 75.2 °F - 71.6 °F 89% 29.80 in 4.3 mi NNW 6.9 mph - N/A Rain Light Rain
9:00 PM 75.2 °F - 71.6 °F 89% 29.83 in 1.9 mi Variable 1.2 mph - N/A Rain Rain
9:30 PM 77.0 °F - 73.4 °F 89% 29.83 in 4.3 mi West 12.7 mph - N/A Rain Light Rain
10:00 PM 77.0 °F - 73.4 °F 89% 29.83 in 4.3 mi West 6.9 mph - N/A Rain Light Rain
10:30 PM 77.0 °F - 73.4 °F 89% 29.83 in 4.3 mi WSW 4.6 mph - N/A Rain Light Rain
11:00 PM 77.0 °F - 73.4 °F 89% 29.83 in 4.3 mi Variable 1.2 mph - N/A Rain Light Rain
11:30 PM 75.2 °F - 73.4 °F 94% 29.80 in 4.3 mi Calm Calm - N/A Rain Light Rain